CST,Max TemperatureF,Mean TemperatureF,Min TemperatureF,Max Dew PointF,MeanDew PointF,Min DewpointF,Max Humidity, Mean Humidity, Min Humidity, Max Sea Level PressureIn, Mean Sea Level PressureIn, Min Sea Level PressureIn, Max VisibilityMiles, Mean VisibilityMiles, Min VisibilityMiles, Max Wind SpeedMPH, Mean Wind SpeedMPH, Max Gust SpeedMPH,PrecipitationIn, CloudCover, Events, WindDirDegrees
2012-11-1,62,48,35,39,30,23,75,56,29,30.04,29.97,29.89,20,12,10,12,3,,0.00,2,,239
2012-11-2,57,50,42,39,36,32,87,64,38,30.08,30.00,29.89,20,12,7,9,4,,0.00,1,,17
2012-11-3,62,52,41,39,36,34,87,64,42,30.17,30.07,29.99,20,12,7,14,7,21,0.00,4,,50
2012-11-4,53,43,33,37,35,30,100,83,41,30.26,30.19,30.16,20,9,1,8,4,,0.00,1,,354
2012-11-5,44,42,41,41,37,34,93,81,70,30.18,30.13,30.08,20,10,5,9,3,,0.00,7,Rain,82
2012-11-6,51,43,35,45,41,36,100,90,62,30.08,30.02,29.95,10,6,1,12,2,,0.01,7,,264
2012-11-7,50,46,41,43,41,37,100,86,62,30.20,30.06,29.94,20,9,5,14,2,,0.01,7,Rain,322
2012-11-8,57,45,33,43,37,34,100,81,48,30.28,30.20,30.14,20,9,0,9,2,,0.00,1,Fog,184
2012-11-9,69,56,42,52,42,36,81,65,46,30.17,30.10,30.03,20,12,10,18,9,29,0.00,0,,186
2012-11-10,71,61,51,54,45,41,72,56,45,30.14,30.09,30.04,20,11,10,21,14,26,0.00,0,,184
2012-11-11,69,60,51,57,50,45,100,69,53,30.09,30.03,29.90,20,11,3,21,15,32,0.74,6,Rain,198
2012-11-12,51,42,32,50,33,21,100,79,37,30.47,30.30,30.04,20,11,3,16,7,22,0.41,3,Rain,297
2012-11-13,48,38,28,32,29,21,100,79,37,30.56,30.49,30.46,20,12,10,8,1,,0.00,0,,28
2012-11-14,48,39,30,34,30,27,100,88,46,30.50,30.44,30.37,20,12,5,9,1,,0.00,1,,33
2012-11-15,51,40,28,34,31,27,100,86,44,30.42,30.37,30.34,20,10,3,6,1,,0.00,2,,16
2012-11-16,55,42,30,36,32,25,100,83,31,30.47,30.44,30.40,15,8,0,8,1,,0.00,1,Fog,25
2012-11-17,59,44,28,36,32,28,100,82,31,30.53,30.46,30.42,15,8,2,6,1,,0.00,0,,84
2012-11-18,62,46,30,37,33,28,100,76,32,30.43,30.38,30.34,20,11,5,7,1,,0.00,0,,162
2012-11-19,64,50,35,41,36,32,93,65,32,30.35,30.26,30.16,20,12,10,9,2,,0.00,4,,178
2012-11-20,66,56,46,50,46,41,94,72,49,30.19,30.15,30.06,20,12,5,9,3,,0.00,4,,283
2012-11-21,62,52,41,54,45,39,100,93,55,30.31,30.22,30.18,20,4,0,6,1,,0.00,3,Fog,307
2012-11-22,66,52,37,48,44,37,100,74,46,30.20,30.12,30.03,20,10,0,16,5,24,0.00,4,Rain-Thunderstorm,199
2012-11-23,57,44,32,54,33,19,94,64,37,30.35,30.23,30.07,20,13,7,17,8,25,0.02,3,Rain,311
2012-11-24,37,32,26,27,21,19,80,66,48,30.37,30.26,30.10,20,13,10,9,5,,0.00,1,,258
2012-11-25,57,44,32,32,29,25,93,66,31,30.11,30.03,29.95,20,13,10,12,7,,0.00,0,,200
2012-11-26,51,42,32,37,32,27,100,80,54,30.34,30.17,30.06,20,13,10,16,4,23,0.00,4,Rain,11
2012-11-27,41,34,26,28,27,23,100,81,53,30.44,30.36,30.24,20,12,5,12,6,,0.00,0,,342
2012-11-28,50,38,26,30,27,21,100,79,35,30.47,30.40,30.37,20,11,4,6,2,,0.00,0,,201
2012-11-29,57,44,32,36,29,27,93,65,31,30.36,30.28,30.19,20,12,10,16,5,,0.00,1,,188
2012-11-30,62,50,37,46,37,28,87,66,42,30.21,30.18,30.13,20,12,10,14,9,18,0.00,1,,193